Flight Track Log - Related Links

Times and Time Zones

All times are in EDT time to prevent confusion due to time zone crossing. See the CPZ5701 flight status page for this flight to view local times or setup timezone preferences in your user account.

Time Position Orientation Groundspeed Altitude Reporting Facility
EDT Latitude Longitude Course Direction KTS MPH feet Rate Location/Type
Tue 05:56:17 PM 42.2008 -83.3550 180° South 149 171 1,500  Level Cleveland Center
Tue 05:57:05 PM 42.1622 -83.3639 190° South 202 232 2,700 1,887 Climbing Cleveland Center
Tue 05:58:21 PM 42.0814 -83.3817 189° South 257 296 5,400 2,410 Climbing Cleveland Center
Tue 05:59:00 PM 41.8510 -83.5799 180° South  Level Estimated
Tue 05:59:07 PM 42.0214 -83.3972 191° South 278 320 7,600  Level Cleveland Center
Tue 05:59:23 PM 42.0053 -83.4000 187° South 273 314 8,100 2,308 Climbing Cleveland Center
Tue 06:00:00 PM 41.7606 -83.6362 180° South  Level Estimated
Tue 06:00:25 PM 41.9200 -83.3853 173° South 308 354 10,600  Level Cleveland Center
Tue 06:01:00 PM 41.6701 -83.6922 180° South  Level Estimated
Tue 06:01:27 PM 41.8222 -83.3678 172° South 337 388 12,200  Level Cleveland Center
Tue 06:02:29 PM 41.7211 -83.3494 172° South 361 415 14,300 2,081 Climbing Cleveland Center
Tue 06:03:31 PM 41.6189 -83.3372 175° South 365 420 16,500 1,839 Climbing Cleveland Center
Tue 06:04:33 PM 41.5139 -83.3411 182° South 374 430 18,100 1,584 Climbing Cleveland Center
Tue 06:05:36 PM 41.3956 -83.4092 203° Southwest 386 444 19,800 1,536 Climbing Cleveland Center
Tue 06:06:38 PM 41.2947 -83.4689 204° Southwest 394 453 21,300 1,452 Climbing Cleveland Center
Tue 06:07:40 PM 41.1917 -83.5267 203° Southwest 399 459 22,800 1,258 Climbing Cleveland Center
Tue 06:08:42 PM 41.0903 -83.5872 204° Southwest 402 463 23,900 581 Climbing Cleveland Center
Tue 06:09:44 PM 40.9867 -83.6469 204° Southwest 411 473 24,000 48 Climbing Cleveland Center
Tue 06:10:46 PM 40.8589 -83.7197 203° Southwest 415 478 24,000  Level Cleveland Center
Tue 06:12:04 PM 40.7308 -83.7925 203° Southwest 416 479 24,000  Level Indianapolis Center
Tue 06:13:06 PM 40.6244 -83.8519 203° Southwest 418 481 24,000  Level Indianapolis Center
Tue 06:14:08 PM 40.4958 -83.9272 204° Southwest 418 481 24,000  Level Indianapolis Center
Tue 06:15:10 PM 40.3892 -83.9867 203° Southwest 419 482 24,000  Level Indianapolis Center
Tue 06:16:12 PM 40.2814 -84.0467 203° Southwest 419 482 24,000  Level Indianapolis Center
Tue 06:17:14 PM 40.1719 -84.1042 202° Southwest 421 484 24,000  Level Indianapolis Center
Tue 06:18:16 PM 40.0631 -84.1606 202° Southwest 422 486 24,000  Level Indianapolis Center
Tue 06:19:18 PM 39.9336 -84.2286 202° Southwest 422 486 24,000  Level Indianapolis Center
Tue 06:20:20 PM 39.8247 -84.2858 202° Southwest 422 486 24,000  Level Indianapolis Center
Tue 06:21:23 PM 39.7153 -84.3442 202° Southwest 423 487 24,000  Level Indianapolis Center
Tue 06:22:25 PM 39.6044 -84.4008 202° Southwest 425 489 24,000 -387 Level Indianapolis Center
Tue 06:23:27 PM 39.4953 -84.4567 202° Southwest 425 489 23,200 -968 Descending Indianapolis Center
Tue 06:24:29 PM 39.3672 -84.5244 202° Southwest 422 486 22,000 -581 Descending Indianapolis Center
Tue 06:25:31 PM 39.2583 -84.5792 201° Southwest 419 482 22,000  Level Indianapolis Center
Tue 06:26:33 PM 39.1500 -84.6347 202° Southwest 420 483 22,000 -157 Level Indianapolis Center
Tue 06:27:26 PM 39.0500 -84.6833 201° Southwest 419 482 21,700 -1,381 Descending Cincinnati TRACON
Tue 06:28:26 PM 38.9500 -84.7667 213° Southwest 404 465 19,400 -2,300 Descending Cincinnati TRACON
Tue 06:29:26 PM 38.8667 -84.8500 218° Southwest 377 434 17,100 -2,311 Descending Cincinnati TRACON
Tue 06:30:41 PM 38.7694 -84.9436 217° Southwest 379 436 14,200 -1,839 Descending Indianapolis Center
Tue 06:31:43 PM 38.6894 -85.0194 217° Southwest 367 422 12,900 -1,065 Descending Indianapolis Center
Tue 06:32:45 PM 38.6036 -85.1022 217° Southwest 362 417 12,000 -432 Descending Indianapolis Center
Tue 06:33:48 PM 38.5275 -85.1739 216° Southwest 348 400 12,000 -480 Level Indianapolis Center
Tue 06:34:50 PM 38.4419 -85.2572 217° Southwest 350 403 11,000 -1,161 Descending Indianapolis Center
Tue 06:35:52 PM 38.3719 -85.3236 217° Southwest 327 376 9,600 -1,548 Descending Indianapolis Center
Tue 06:36:54 PM 38.3069 -85.3853 217° Southwest 301 346 7,800 -1,694 Descending Indianapolis Center
Tue 06:37:56 PM 38.2417 -85.4464 216° Southwest 294 338 6,100 -1,548 Descending Indianapolis Center
Tue 06:38:58 PM 38.1797 -85.5050 217° Southwest 286 329 4,600 -1,065 Descending Indianapolis Center
Tue 06:40:00 PM 38.1103 -85.5681 216° Southwest 281 323 3,900 -674 Descending Indianapolis Center
Tue 06:43:16 PM 38.1000 -85.7167 302° West 132 152 1,700 -673 Descending Louisville TRACON

Login

Don't have an account? Register now (free) for customized features, flight alerts, and more!